This is the latest recevied weather packets stored in our database for station/object KJ4EWA. If no packets are shown the sender has not sent any weather packets the latest 10 day(s).
| Time | Temp. | Humidity | Pressure | Rain* | Wind** | Luminosity | Snow |
|---|---|---|---|---|---|---|---|
| 1778075455 | 24.44° C | 96% | 1018.5 hPa | 0 mm | - | 89 W/m² | - |
| 1778075151 | 24.44° C | 96% | 1018.1 hPa | 0 mm | - | 65 W/m² | - |
| 1778074847 | 24.44° C | 96% | 1018.6 hPa | 0 mm | - | 82 W/m² | - |
| 1778074545 | 24.44° C | 96% | 1018.4 hPa | 0 mm | - | 69 W/m² | - |
| 1778074242 | 24.44° C | 95% | 1018.3 hPa | 0 mm | - | 76 W/m² | - |
| 1778073939 | 24.44° C | 95% | 1018.4 hPa | 0 mm | - | 120 W/m² | - |
| 1778073636 | 24.44° C | 96% | 1018.2 hPa | 0 mm | - | 153 W/m² | - |
| 1778073333 | 24.44° C | 97% | 1018.2 hPa | 0 mm | - | 104 W/m² | - |
| 1778073029 | 23.89° C | 97% | 1018 hPa | 0 mm | - | 113 W/m² | - |
| 1778072726 | 23.89° C | 99% | 1018 hPa | 0 mm | - | 110 W/m² | - |
| 1778072424 | 23.89° C | 99% | 1017.9 hPa | 0 mm | - | 99 W/m² | - |
| 1778072122 | 23.33° C | 99% | 1017.8 hPa | 0 mm | - | 73 W/m² | - |
| 1778071819 | 23.33° C | 99% | 1017.8 hPa | 0 mm | - | 81 W/m² | - |
| 1778071517 | 22.78° C | 99% | 1017.7 hPa | 0 mm | - | 76 W/m² | - |
| 1778071215 | 22.78° C | 99% | 1017.8 hPa | 0 mm | - | 75 W/m² | - |
| 1778070913 | 22.78° C | 99% | 1017.7 hPa | 0 mm | - | 60 W/m² | - |
| 1778070610 | 22.22° C | 99% | 1017.6 hPa | 0 mm | - | 53 W/m² | - |
| 1778070307 | 22.22° C | 99% | 1017.9 hPa | 0 mm | - | 56 W/m² | - |
| 1778070005 | 22.22° C | 99% | 1017.5 hPa | 0 mm | - | 62 W/m² | - |
| 1778069702 | 21.67° C | 99% | 1017.5 hPa | 0 mm | - | 59 W/m² | - |
| 1778069398 | 21.67° C | 99% | 1017.3 hPa | 0 mm | - | 48 W/m² | - |
| 1778069096 | 21.11° C | 99% | 1017.2 hPa | 0 mm | - | 42 W/m² | - |
| 1778068794 | 20.56° C | 99% | 1017.3 hPa | 0 mm | - | 39 W/m² | - |
| 1778068491 | 20° C | 99% | 1017.3 hPa | 0 mm | - | 32 W/m² | - |
| 1778068189 | 20° C | 99% | 1016.9 hPa | 0 mm | - | 20 W/m² | - |
* Rain latest hour (hover to see other rain measurements)
** Current wind speed in m/s (hover to see current wind gust speed)